M I D A S
Marine Information and Data Acquisition System
Tripno 314 of the Zeeleeuw from 2002-02-28 07:05:00 to 2002-02-28 17:03:23
Back to CruiseResearch ActivitiesStationsMapUnderway DataData graphs

EquipmentUnitsComments
TimeDGPSUTC
LatitudeDGPSDM.mWGS84
LongitudeDGPSDM.mWGS84
SpeedMeteo Stationm/sRelative wind speed
DirectionMeteo StationdegRelative wind direction
TemperatureMeteo Stationdeg CelciusAir temperature
PressureMeteo StationPaAtmospheric pressure
HumidityMeteo Station%Relative humidity
Missing or incorrect values are displayed as -999
Metereological data collected by the RV Zeeleeuw from 2002-02-28 07:05:00 to 2002-02-28 17:03:23
                                                                                    Next 1000 lines
Time Latitude Longitude Speed Direction Temperature Pressure Humidity
2002-02-28 07:05:06 51°13.686 2°55.906 3.6 72 3.3 99670 85
2002-02-28 07:05:12 51°13.686 2°55.906 4.4 92 3.3 99680 85
2002-02-28 07:05:17 51°13.686 2°55.905 5.9 54 3.3 99680 85
2002-02-28 07:05:22 51°13.686 2°55.905 5.2 30 3.3 99680 85
2002-02-28 07:05:27 51°13.686 2°55.905 3.9 37 3.3 99680 85
2002-02-28 07:05:32 51°13.686 2°55.905 5.5 30 3.3 99670 85
2002-02-28 07:05:37 51°13.686 2°55.905 8.3 30 3.3 99670 85
2002-02-28 07:05:42 51°13.687 2°55.905 7.5 19 3.3 99670 85
2002-02-28 07:05:47 51°13.687 2°55.905 5.9 30 3.3 99670 85
2002-02-28 07:05:52 51°13.687 2°55.904 5.2 340 3.3 99680 86
2002-02-28 07:05:57 51°13.688 2°55.902 4 352 3.3 99680 86
2002-02-28 07:06:02 51°13.689 2°55.899 4.7 22 3.3 99680 86
2002-02-28 07:06:07 51°13.69 2°55.894 5.3 354 3.3 99680 86
2002-02-28 07:06:13 51°13.691 2°55.888 6.2 11 3.3 99680 85
2002-02-28 07:06:18 51°13.692 2°55.881 5.2 359 3.3 99680 85
2002-02-28 07:06:23 51°13.694 2°55.873 4.9 17 3.3 99670 85
2002-02-28 07:06:28 51°13.695 2°55.865 6.2 23 3.3 99670 85
2002-02-28 07:06:33 51°13.697 2°55.856 6.3 17 3.3 99670 85
2002-02-28 07:06:38 51°13.698 2°55.848 6.5 38 3.3 99670 85
2002-02-28 07:06:43 51°13.7 2°55.839 4.1 3 3.3 99670 85
2002-02-28 07:06:48 51°13.701 2°55.831 7.5 6 3.3 99670 85
2002-02-28 07:06:53 51°13.703 2°55.823 7.6 1 3.3 99670 85
2002-02-28 07:06:58 51°13.704 2°55.815 5.8 5 3.3 99670 85
2002-02-28 07:07:03 51°13.706 2°55.807 4.8 11 3.3 99670 85
2002-02-28 07:07:07 51°13.707 2°55.801 5.7 22 3.3 99670 85
2002-02-28 07:07:12 51°13.708 2°55.793 6.5 15 3.3 99670 85
2002-02-28 07:07:17 51°13.709 2°55.785 7.9 9 3.3 99670 85
2002-02-28 07:07:21 51°13.71 2°55.779 6.2 8 3.3 99680 85
2002-02-28 07:07:26 51°13.711 2°55.771 4.7 352 3.3 99680 85
2002-02-28 07:07:32 51°13.712 2°55.763 6.5 358 3.3 99670 85
2002-02-28 07:07:37 51°13.713 2°55.756 8.8 17 3.3 99670 85
2002-02-28 07:07:42 51°13.714 2°55.749 6.9 348 3.4 99670 85
2002-02-28 07:07:47 51°13.714 2°55.743 6.3 4 3.4 99670 85
2002-02-28 07:07:51 51°13.715 2°55.738 5.7 10 3.3 99670 85
2002-02-28 07:07:57 51°13.715 2°55.732 3.8 33 3.3 99670 85
2002-02-28 07:08:02 51°13.715 2°55.726 4.2 17 3.3 99680 85
2002-02-28 07:08:07 51°13.716 2°55.721 3.8 24 3.3 99680 85
2002-02-28 07:08:12 51°13.716 2°55.715 4.5 52 3.4 99670 85
2002-02-28 07:08:18 51°13.716 2°55.71 5.3 42 3.4 99670 85
2002-02-28 07:08:22 51°13.716 2°55.707 3.7 26 3.4 99680 85
2002-02-28 07:08:28 51°13.718 2°55.705 2.1 325 3.4 99680 85
2002-02-28 07:08:32 51°13.719 2°55.704 1.2 310 3.4 99670 85
2002-02-28 07:08:37 51°13.722 2°55.704 1.8 275 3.4 99670 85
2002-02-28 07:08:42 51°13.725 2°55.705 3 10 3.4 99670 85
2002-02-28 07:08:47 51°13.729 2°55.705 4 14 3.4 99670 85
2002-02-28 07:08:52 51°13.734 2°55.704 4.9 333 3.4 99670 85
2002-02-28 07:08:57 51°13.74 2°55.702 2.5 328 3.4 99670 85
2002-02-28 07:09:02 51°13.747 2°55.698 2.2 329 3.4 99670 86
2002-02-28 07:09:07 51°13.755 2°55.693 1.1 145 3.4 99670 86
2002-02-28 07:09:11 51°13.762 2°55.688 1.6 165 3.4 99680 86
2002-02-28 07:09:17 51°13.773 2°55.678 2.1 274 3.4 99680 86
2002-02-28 07:09:22 51°13.783 2°55.67 2.1 215 3.4 99670 86
2002-02-28 07:09:27 51°13.794 2°55.661 2.1 244 3.4 99670 86
2002-02-28 07:09:32 51°13.805 2°55.652 3.8 191 3.4 99670 86
2002-02-28 07:09:37 51°13.817 2°55.643 2 190 3.4 99670 86
2002-02-28 07:09:42 51°13.83 2°55.633 1.4 315 3.5 99680 86
2002-02-28 07:09:47 51°13.842 2°55.624 1.3 214 3.5 99680 86
2002-02-28 07:09:52 51°13.855 2°55.614 2 196 3.5 99680 86
2002-02-28 07:09:57 51°13.869 2°55.604 4.9 202 3.5 99680 86
2002-02-28 07:10:02 51°13.882 2°55.594 4.8 190 3.5 99680 86
2002-02-28 07:10:07 51°13.896 2°55.583 3 201 3.5 99680 86
2002-02-28 07:10:12 51°13.909 2°55.572 5.1 185 3.5 99680 86
2002-02-28 07:10:17 51°13.923 2°55.561 5.1 166 3.5 99680 86
2002-02-28 07:10:22 51°13.937 2°55.551 5.5 170 3.5 99680 86
2002-02-28 07:10:28 51°13.953 2°55.538 5.2 175 3.5 99680 86
2002-02-28 07:10:33 51°13.967 2°55.528 4.4 215 3.5 99680 85
2002-02-28 07:10:37 51°13.978 2°55.521 4.2 197 3.5 99680 85
2002-02-28 07:10:42 51°13.991 2°55.513 2.8 170 3.5 99680 85
2002-02-28 07:10:47 51°14.003 2°55.504 4.2 185 3.5 99680 85
2002-02-28 07:10:52 51°14.015 2°55.496 4.4 200 3.5 99680 85
2002-02-28 07:10:57 51°14.027 2°55.488 4.6 162 3.5 99680 85
2002-02-28 07:11:01 51°14.036 2°55.481 5.4 207 3.5 99680 85
2002-02-28 07:11:07 51°14.049 2°55.472 3.7 198 3.5 99680 85
2002-02-28 07:11:11 51°14.057 2°55.467 2.2 218 3.5 99680 85
2002-02-28 07:11:17 51°14.069 2°55.458 5 224 3.5 99680 85
2002-02-28 07:11:22 51°14.079 2°55.45 3.2 212 3.5 99680 85
2002-02-28 07:11:27 51°14.089 2°55.443 2.7 277 3.5 99680 85
2002-02-28 07:11:32 51°14.099 2°55.435 2 250 3.5 99680 85
2002-02-28 07:11:37 51°14.108 2°55.427 1.5 254 3.5 99680 85
2002-02-28 07:11:42 51°14.118 2°55.42 3.5 258 3.5 99680 85
2002-02-28 07:11:47 51°14.128 2°55.412 2.9 229 3.5 99680 85
2002-02-28 07:11:52 51°14.138 2°55.403 3.5 206 3.5 99680 85
2002-02-28 07:11:57 51°14.148 2°55.395 3.1 211 3.5 99680 85
2002-02-28 07:12:02 51°14.158 2°55.386 3.9 216 3.5 99680 85
2002-02-28 07:12:06 51°14.166 2°55.378 4 208 3.5 99680 85
2002-02-28 07:12:12 51°14.178 2°55.366 5.6 202 3.5 99690 85
2002-02-28 07:12:17 51°14.189 2°55.356 4.6 223 3.5 99690 85
2002-02-28 07:12:22 51°14.199 2°55.346 6.9 134 3.5 99680 85
2002-02-28 07:12:27 51°14.208 2°55.335 3 193 3.5 99680 85
2002-02-28 07:12:32 51°14.218 2°55.323 5 174 3.5 99680 85
2002-02-28 07:12:37 51°14.227 2°55.311 4 164 3.5 99680 85
2002-02-28 07:12:42 51°14.237 2°55.299 5.1 176 3.5 99680 85
2002-02-28 07:12:47 51°14.246 2°55.286 2 203 3.5 99680 85
2002-02-28 07:12:52 51°14.255 2°55.273 8.2 167 3.5 99680 85
2002-02-28 07:12:57 51°14.264 2°55.26 6 187 3.5 99680 85
2002-02-28 07:13:02 51°14.272 2°55.246 6.6 175 3.5 99670 85
2002-02-28 07:13:07 51°14.281 2°55.231 7.1 173 3.5 99670 85
2002-02-28 07:13:11 51°14.288 2°55.22 7.7 205 3.5 99670 85
2002-02-28 07:13:17 51°14.298 2°55.203 9.1 189 3.5 99670 85
2002-02-28 07:13:22 51°14.306 2°55.188 7.2 198 3.5 99670 85
2002-02-28 07:13:27 51°14.314 2°55.172 5.9 205 3.5 99670 85
2002-02-28 07:13:32 51°14.321 2°55.157 6.8 197 3.5 99670 85
2002-02-28 07:13:37 51°14.329 2°55.142 6.2 211 3.5 99670 85
2002-02-28 07:13:42 51°14.337 2°55.127 3.8 200 3.5 99670 85
2002-02-28 07:13:47 51°14.345 2°55.111 5.2 215 3.5 99670 85
2002-02-28 07:13:51 51°14.352 2°55.099 6.5 201 3.6 99670 85
2002-02-28 07:13:57 51°14.362 2°55.081 6.5 196 3.6 99670 85
2002-02-28 07:14:02 51°14.371 2°55.065 7.3 187 3.6 99670 85
2002-02-28 07:14:07 51°14.38 2°55.05 8.3 202 3.6 99670 85
2002-02-28 07:14:12 51°14.389 2°55.033 9.1 202 3.6 99670 85
2002-02-28 07:14:17 51°14.398 2°55.016 6.3 205 3.6 99670 85
2002-02-28 07:14:22 51°14.407 2°54.998 10.7 198 3.6 99670 85
2002-02-28 07:14:27 51°14.416 2°54.979 9.2 208 3.6 99670 85
2002-02-28 07:14:32 51°14.425 2°54.96 7.9 208 3.6 99670 85
2002-02-28 07:14:37 51°14.434 2°54.941 10.5 207 3.6 99670 85
2002-02-28 07:14:42 51°14.443 2°54.922 8.3 207 3.6 99660 86
2002-02-28 07:14:47 51°14.452 2°54.902 10 203 3.6 99660 86
2002-02-28 07:14:52 51°14.461 2°54.882 9.1 202 3.6 99660 86
2002-02-28 07:14:57 51°14.47 2°54.861 10.5 206 3.6 99660 86
2002-02-28 07:15:01 51°14.477 2°54.845 9.7 203 3.6 99650 85
2002-02-28 07:15:06 51°14.486 2°54.824 9.4 201 3.6 99650 85
2002-02-28 07:15:11 51°14.495 2°54.803 10.1 207 3.6 99670 86
2002-02-28 07:15:17 51°14.505 2°54.777 10.9 204 3.6 99670 86
2002-02-28 07:15:21 51°14.512 2°54.76 12.6 205 3.7 99660 86
2002-02-28 07:15:27 51°14.523 2°54.734 10.6 205 3.7 99660 86
2002-02-28 07:15:32 51°14.532 2°54.712 11.2 208 3.7 99650 86
2002-02-28 07:15:37 51°14.541 2°54.69 10.3 203 3.7 99650 86
2002-02-28 07:15:41 51°14.547 2°54.672 11.1 204 3.7 99650 86
2002-02-28 07:15:47 51°14.558 2°54.644 10.6 206 3.7 99650 86
2002-02-28 07:15:52 51°14.567 2°54.621 11.1 200 3.7 99650 86
2002-02-28 07:15:57 51°14.575 2°54.597 11.9 202 3.7 99650 86
2002-02-28 07:16:02 51°14.583 2°54.573 12.5 203 3.7 99650 86
2002-02-28 07:16:07 51°14.592 2°54.548 11.3 201 3.7 99650 86
2002-02-28 07:16:11 51°14.598 2°54.528 11.3 199 3.7 99640 86
2002-02-28 07:16:17 51°14.609 2°54.498 11.7 205 3.7 99640 86
2002-02-28 07:16:22 51°14.617 2°54.472 9.6 206 3.8 99650 86
2002-02-28 07:16:27 51°14.627 2°54.447 10.5 209 3.8 99650 86
2002-02-28 07:16:32 51°14.637 2°54.423 13.3 202 3.8 99640 86
2002-02-28 07:16:37 51°14.649 2°54.399 10.6 210 3.8 99640 86
2002-02-28 07:16:42 51°14.66 2°54.376 10.3 206 3.8 99640 86
2002-02-28 07:16:47 51°14.672 2°54.353 8.8 209 3.8 99640 86
2002-02-28 07:16:52 51°14.684 2°54.331 6.5 232 3.8 99650 86
2002-02-28 07:16:57 51°14.697 2°54.309 6.3 133 3.8 99650 86
2002-02-28 07:17:02 51°14.711 2°54.288 4.4 243 3.8 99640 86
2002-02-28 07:17:07 51°14.724 2°54.268 5.3 229 3.8 99640 86
2002-02-28 07:17:12 51°14.738 2°54.248 4.9 130 3.8 99650 86
2002-02-28 07:17:17 51°14.753 2°54.229 4.9 215 3.8 99650 86
2002-02-28 07:17:22 51°14.767 2°54.21 8.7 201 3.9 99650 86
2002-02-28 07:17:27 51°14.782 2°54.192 8.4 208 3.9 99650 86
2002-02-28 07:17:32 51°14.796 2°54.174 8.2 206 3.8 99650 86
2002-02-28 07:17:37 51°14.812 2°54.157 4.3 210 3.8 99650 86
2002-02-28 07:17:42 51°14.827 2°54.141 5 216 3.9 99650 86
2002-02-28 07:17:47 51°14.843 2°54.126 3.5 205 3.9 99650 86
2002-02-28 07:17:52 51°14.858 2°54.109 3.6 233 3.9 99660 86
2002-02-28 07:17:57 51°14.874 2°54.095 2.7 125 3.9 99660 86
2002-02-28 07:18:02 51°14.89 2°54.08 2.5 236 3.9 99650 86
2002-02-28 07:18:07 51°14.906 2°54.067 5 228 3.9 99650 86
2002-02-28 07:18:12 51°14.922 2°54.053 2.8 223 3.9 99650 86
2002-02-28 07:18:17 51°14.938 2°54.042 1.9 216 3.9 99650 86
2002-02-28 07:18:22 51°14.954 2°54.029 2.2 230 3.9 99660 86
2002-02-28 07:18:27 51°14.971 2°54.018 3.2 250 3.9 99660 86
2002-02-28 07:18:31 51°14.984 2°54.008 3 212 3.9 99660 86
2002-02-28 07:18:37 51°15.003 2°53.993 1.9 240 3.9 99660 86
2002-02-28 07:18:42 51°15.019 2°53.98 4.1 211 3.9 99660 86
2002-02-28 07:18:47 51°15.035 2°53.966 3.2 134 3.9 99660 86
2002-02-28 07:18:52 51°15.051 2°53.953 2.5 205 3.9 99660 86
2002-02-28 07:18:57 51°15.067 2°53.938 6.3 202 3.9 99660 86
2002-02-28 07:19:02 51°15.082 2°53.923 7.5 201 3.9 99660 86
2002-02-28 07:19:07 51°15.097 2°53.907 2.3 320 3.9 99660 86
2002-02-28 07:19:11 51°15.11 2°53.895 4.3 133 3.9 99670 86
2002-02-28 07:19:17 51°15.129 2°53.877 5.2 204 3.9 99670 86
2002-02-28 07:19:21 51°15.141 2°53.863 4.2 229 4 99670 86
2002-02-28 07:19:27 51°15.159 2°53.847 4.8 225 4 99670 86
2002-02-28 07:19:32 51°15.174 2°53.831 3.3 219 4 99660 86
2002-02-28 07:19:37 51°15.191 2°53.817 5.3 231 4 99660 86
2002-02-28 07:19:42 51°15.206 2°53.801 2.7 244 4 99650 86
2002-02-28 07:19:47 51°15.222 2°53.787 3.7 233 4 99650 86
2002-02-28 07:19:51 51°15.235 2°53.775 3.9 231 4 99650 86
2002-02-28 07:19:57 51°15.254 2°53.758 3.4 131 4 99650 86
2002-02-28 07:20:02 51°15.27 2°53.743 3 206 4 99660 86
2002-02-28 07:20:07 51°15.287 2°53.73 4 218 4 99660 86
2002-02-28 07:20:12 51°15.303 2°53.717 4.4 222 4 99660 86
2002-02-28 07:20:17 51°15.32 2°53.705 2.6 134 4 99660 86
2002-02-28 07:20:22 51°15.337 2°53.694 3.9 320 4 99650 86
2002-02-28 07:20:27 51°15.355 2°53.682 1.7 249 4 99650 86
2002-02-28 07:20:32 51°15.372 2°53.67 2.7 236 4.1 99660 86
2002-02-28 07:20:37 51°15.389 2°53.658 2.5 226 4.1 99660 86
2002-02-28 07:20:42 51°15.406 2°53.644 3.1 225 4.1 99660 86
2002-02-28 07:20:47 51°15.423 2°53.632 4.4 224 4.1 99660 86
2002-02-28 07:20:52 51°15.44 2°53.618 2.4 315 4 99660 86
2002-02-28 07:20:57 51°15.456 2°53.606 5.2 220 4 99660 86
2002-02-28 07:21:02 51°15.473 2°53.592 4 248 4.1 99660 86
2002-02-28 07:21:07 51°15.491 2°53.58 2.1 232 4.1 99660 86
2002-02-28 07:21:12 51°15.508 2°53.567 2.4 234 4.1 99660 86
2002-02-28 07:21:17 51°15.525 2°53.556 2.4 201 4.1 99660 86
2002-02-28 07:21:22 51°15.542 2°53.542 3 228 4.1 99660 86
2002-02-28 07:21:27 51°15.56 2°53.531 2.6 226 4.1 99660 86
2002-02-28 07:21:32 51°15.577 2°53.517 3 209 4.1 99670 86
2002-02-28 07:21:37 51°15.594 2°53.506 2.9 212 4.1 99670 86
2002-02-28 07:21:42 51°15.611 2°53.493 2.9 134 4.1 99660 86
2002-02-28 07:21:47 51°15.629 2°53.481 3.7 209 4.1 99660 86
2002-02-28 07:21:52 51°15.646 2°53.468 2.8 225 4.1 99660 87
2002-02-28 07:21:57 51°15.663 2°53.456 3.8 243 4.1 99660 87
2002-02-28 07:22:02 51°15.681 2°53.444 2.9 220 4.2 99650 87
2002-02-28 07:22:07 51°15.698 2°53.432 2.6 245 4.2 99650 87
2002-02-28 07:22:12 51°15.715 2°53.419 3.1 230 4.2 99660 87
2002-02-28 07:22:17 51°15.732 2°53.405 3.5 237 4.2 99660 87
2002-02-28 07:22:22 51°15.749 2°53.393 2.3 129 4.2 99660 87
2002-02-28 07:22:27 51°15.766 2°53.38 2.5 135 4.2 99660 87
2002-02-28 07:22:31 51°15.78 2°53.371 4.9 203 4.2 99650 87
2002-02-28 07:22:37 51°15.8 2°53.354 2.9 231 4.2 99650 87
2002-02-28 07:22:42 51°15.817 2°53.342 2.6 222 4.2 99640 87
2002-02-28 07:22:47 51°15.834 2°53.328 4.3 201 4.2 99640 87
2002-02-28 07:22:52 51°15.852 2°53.317 2.1 234 4.3 99660 87
2002-02-28 07:22:57 51°15.869 2°53.304 4.3 316 4.3 99660 87
2002-02-28 07:23:02 51°15.886 2°53.292 2.8 228 4.3 99650 87
2002-02-28 07:23:07 51°15.903 2°53.279 3.7 233 4.3 99650 87
2002-02-28 07:23:12 51°15.919 2°53.266 3.6 237 4.3 99640 87
2002-02-28 07:23:17 51°15.936 2°53.253 4.6 228 4.3 99640 87
2002-02-28 07:23:22 51°15.953 2°53.24 3.2 219 4.3 99650 87
2002-02-28 07:23:27 51°15.969 2°53.227 1.8 201 4.3 99650 87
2002-02-28 07:23:32 51°15.986 2°53.213 4.5 232 4.3 99640 87
2002-02-28 07:23:37 51°16.003 2°53.2 3.4 216 4.3 99640 87
2002-02-28 07:23:42 51°16.019 2°53.186 3.1 232 4.3 99650 87
2002-02-28 07:23:47 51°16.037 2°53.175 2.7 219 4.3 99650 87
2002-02-28 07:23:52 51°16.054 2°53.162 5.8 322 4.3 99650 87
2002-02-28 07:23:57 51°16.071 2°53.152 2.2 252 4.3 99650 87
2002-02-28 07:24:02 51°16.088 2°53.139 1.6 226 4.4 99650 87
2002-02-28 07:24:07 51°16.105 2°53.129 3.3 208 4.4 99650 87
2002-02-28 07:24:12 51°16.122 2°53.117 3.7 237 4.4 99650 87
2002-02-28 07:24:17 51°16.14 2°53.106 2.8 205 4.4 99650 87
2002-02-28 07:24:22 51°16.156 2°53.093 3 249 4.4 99650 87
2002-02-28 07:24:27 51°16.174 2°53.082 2.3 220 4.4 99650 87
2002-02-28 07:24:32 51°16.191 2°53.07 3.2 228 4.5 99640 87
2002-02-28 07:24:37 51°16.208 2°53.061 2.8 248 4.5 99640 87
2002-02-28 07:24:42 51°16.225 2°53.048 4 245 4.5 99640 87
2002-02-28 07:24:47 51°16.242 2°53.038 1.9 316 4.5 99640 87
2002-02-28 07:24:52 51°16.259 2°53.026 2.5 229 4.6 99650 87
2002-02-28 07:24:57 51°16.276 2°53.015 2 236 4.6 99650 87
2002-02-28 07:25:02 51°16.293 2°53.004 2.6 220 4.5 99670 87
2002-02-28 07:25:07 51°16.31 2°52.992 3.2 255 4.5 99670 87
2002-02-28 07:25:12 51°16.327 2°52.981 7 250 4.5 99650 87
2002-02-28 07:25:17 51°16.344 2°52.969 4.6 131 4.5 99650 87
2002-02-28 07:25:22 51°16.361 2°52.958 2.4 193 4.6 99660 87
2002-02-28 07:25:27 51°16.378 2°52.945 1.7 247 4.6 99660 87
2002-02-28 07:25:32 51°16.395 2°52.935 2.3 214 4.6 99660 87
2002-02-28 07:25:37 51°16.412 2°52.923 3 234 4.6 99660 87
2002-02-28 07:25:42 51°16.43 2°52.913 3.1 218 4.6 99660 87
2002-02-28 07:25:47 51°16.446 2°52.901 3.3 234 4.6 99660 87
2002-02-28 07:25:52 51°16.464 2°52.891 4.3 207 4.6 99640 87
2002-02-28 07:25:57 51°16.481 2°52.879 4.3 257 4.6 99640 87
2002-02-28 07:26:02 51°16.498 2°52.869 3.1 196 4.7 99650 87
2002-02-28 07:26:07 51°16.515 2°52.857 6.1 244 4.7 99650 87
2002-02-28 07:26:12 51°16.532 2°52.848 3.9 233 4.7 99660 87
2002-02-28 07:26:17 51°16.549 2°52.836 3.4 242 4.7 99660 87
2002-02-28 07:26:22 51°16.566 2°52.826 2.9 244 4.7 99660 87
2002-02-28 07:26:27 51°16.583 2°52.814 5.4 230 4.7 99660 87
2002-02-28 07:26:32 51°16.6 2°52.804 1.9 234 4.7 99660 87
2002-02-28 07:26:37 51°16.617 2°52.793 1.5 251 4.7 99660 87
2002-02-28 07:26:42 51°16.634 2°52.781 4.6 257 4.7 99660 86
2002-02-28 07:26:47 51°16.65 2°52.771 3.9 214 4.7 99660 86
2002-02-28 07:26:52 51°16.667 2°52.759 3.4 266 4.7 99650 86
2002-02-28 07:26:57 51°16.684 2°52.749 3.6 214 4.7 99650 86
2002-02-28 07:27:02 51°16.701 2°52.737 5.8 208 4.7 99650 86
2002-02-28 07:27:07 51°16.718 2°52.728 4.9 244 4.7 99650 86
2002-02-28 07:27:12 51°16.735 2°52.717 4.8 238 4.8 99650 86
2002-02-28 07:27:17 51°16.752 2°52.708 4.2 218 4.8 99650 86
2002-02-28 07:27:22 51°16.769 2°52.697 2.9 133 4.8 99660 86
2002-02-28 07:27:27 51°16.785 2°52.687 4.3 209 4.8 99660 86
2002-02-28 07:27:32 51°16.802 2°52.677 3 231 4.8 99650 86
2002-02-28 07:27:37 51°16.818 2°52.667 3.6 262 4.8 99650 86
2002-02-28 07:27:42 51°16.834 2°52.656 3.9 262 4.8 99670 86
2002-02-28 07:27:47 51°16.851 2°52.647 3 239 4.8 99670 86
2002-02-28 07:27:52 51°16.868 2°52.636 4.1 260 4.8 99660 86
2002-02-28 07:27:57 51°16.884 2°52.627 5.9 247 4.8 99660 86
2002-02-28 07:28:02 51°16.901 2°52.616 1.8 239 4.8 99660 86
2002-02-28 07:28:07 51°16.917 2°52.606 5.3 248 4.8 99660 86
2002-02-28 07:28:12 51°16.934 2°52.596 4.1 245 4.8 99660 86
2002-02-28 07:28:17 51°16.95 2°52.585 2.1 234 4.8 99660 86
2002-02-28 07:28:22 51°16.967 2°52.575 6.5 229 4.9 99660 86
2002-02-28 07:28:27 51°16.984 2°52.565 2.8 263 4.9 99660 86
2002-02-28 07:28:32 51°17.001 2°52.555 6.2 240 4.9 99660 86
2002-02-28 07:28:37 51°17.018 2°52.545 3.6 229 4.9 99660 86
2002-02-28 07:28:42 51°17.034 2°52.534 1.6 255 4.9 99680 86
2002-02-28 07:28:46 51°17.048 2°52.527 3 260 4.9 99680 86
2002-02-28 07:28:52 51°17.067 2°52.513 2.9 221 4.9 99660 86
2002-02-28 07:28:57 51°17.083 2°52.503 4 217 4.9 99660 86
2002-02-28 07:29:02 51°17.1 2°52.493 4.3 193 5 99660 86
2002-02-28 07:29:07 51°17.116 2°52.481 4 242 5 99660 86
2002-02-28 07:29:11 51°17.13 2°52.474 1.5 247 5 99660 86
2002-02-28 07:29:17 51°17.15 2°52.46 2 250 5 99660 86
2002-02-28 07:29:22 51°17.167 2°52.452 2.9 241 5 99660 86
2002-02-28 07:29:27 51°17.183 2°52.44 1.1 236 5 99660 86
2002-02-28 07:29:32 51°17.2 2°52.431 3.7 245 5 99660 86
2002-02-28 07:29:37 51°17.217 2°52.42 2.4 245 5 99660 86
2002-02-28 07:29:42 51°17.234 2°52.41 2.3 320 5 99670 85
2002-02-28 07:29:47 51°17.251 2°52.4 3.1 254 5 99670 85
2002-02-28 07:29:52 51°17.268 2°52.389 5 250 5 99660 85
2002-02-28 07:29:57 51°17.284 2°52.378 3.4 253 5 99660 85
2002-02-28 07:30:02 51°17.301 2°52.368 4.4 233 5 99650 86
2002-02-28 07:30:07 51°17.318 2°52.356 1.6 236 5 99650 86
2002-02-28 07:30:12 51°17.334 2°52.344 2.7 132 5 99650 85
2002-02-28 07:30:17 51°17.351 2°52.33 5.3 228 5 99650 85
2002-02-28 07:30:22 51°17.366 2°52.316 6.3 232 5 99670 85
2002-02-28 07:30:27 51°17.382 2°52.302 8.3 217 5 99670 85
2002-02-28 07:30:32 51°17.398 2°52.287 4.3 131 5.1 99660 85
2002-02-28 07:30:37 51°17.414 2°52.272 5.7 228 5.1 99660 85
2002-02-28 07:30:41 51°17.426 2°52.26 5.6 212 5.1 99660 85
2002-02-28 07:30:46 51°17.442 2°52.245 4.6 319 5.1 99660 85
2002-02-28 07:30:52 51°17.461 2°52.227 5.4 241 5.1 99650 86
2002-02-28 07:30:57 51°17.476 2°52.211 6.4 220 5.1 99650 86
2002-02-28 07:31:02 51°17.491 2°52.195 5.7 134 5.1 99660 85
2002-02-28 07:31:07 51°17.507 2°52.18 5 220 5.1 99660 85
2002-02-28 07:31:12 51°17.522 2°52.163 5 215 5.1 99650 85
2002-02-28 07:31:17 51°17.537 2°52.148 5.3 234 5.1 99650 85
2002-02-28 07:31:22 51°17.552 2°52.131 8.7 214 5.1 99660 85
2002-02-28 07:31:27 51°17.567 2°52.114 9.6 212 5.1 99660 85
2002-02-28 07:31:32 51°17.582 2°52.097 8.6 215 5.1 99650 85
2002-02-28 07:31:38 51°17.6 2°52.077 4.8 227 5.1 99650 85
2002-02-28 07:31:42 51°17.612 2°52.062 4.1 225 5.1 99650 85
2002-02-28 07:31:47 51°17.627 2°52.046 6.8 226 5.1 99650 85
2002-02-28 07:31:52 51°17.641 2°52.029 6.3 230 5.1 99650 85
2002-02-28 07:31:57 51°17.656 2°52.013 9.2 208 5.1 99650 85
2002-02-28 07:32:02 51°17.671 2°51.996 4 198 5.1 99640 85
2002-02-28 07:32:07 51°17.686 2°51.98 3.9 222 5.1 99640 85
2002-02-28 07:32:12 51°17.701 2°51.963 4.3 215 5.2 99640 85
2002-02-28 07:32:17 51°17.716 2°51.947 3.6 323 5.2 99640 85
2002-02-28 07:32:22 51°17.73 2°51.93 8 218 5.2 99650 85
2002-02-28 07:32:27 51°17.745 2°51.913 6.7 207 5.2 99650 85
2002-02-28 07:32:31 51°17.757 2°51.901 7.4 202 5.1 99660 85
2002-02-28 07:32:37 51°17.775 2°51.881 6.4 220 5.1 99660 85
2002-02-28 07:32:42 51°17.79 2°51.864 5.7 222 5.1 99640 84
2002-02-28 07:32:47 51°17.804 2°51.846 8.3 220 5.1 99640 84
2002-02-28 07:32:52 51°17.817 2°51.828 8.2 226 5.2 99650 85
2002-02-28 07:32:57 51°17.83 2°51.808 10.8 212 5.2 99650 85
2002-02-28 07:33:02 51°17.843 2°51.788 10.2 211 5.1 99660 84
2002-02-28 07:33:07 51°17.855 2°51.767 14.2 215 5.1 99660 84
2002-02-28 07:33:12 51°17.867 2°51.745 11.2 201 5.2 99660 85
2002-02-28 07:33:17 51°17.878 2°51.722 15.3 204 5.2 99660 85
2002-02-28 07:33:22 51°17.889 2°51.699 14.9 200 5.2 99640 85
2002-02-28 07:33:27 51°17.898 2°51.674 16 204 5.2 99640 85
2002-02-28 07:33:32 51°17.907 2°51.648 16 199 5.2 99610 85
2002-02-28 07:33:37 51°17.914 2°51.622 16.7 197 5.2 99610 85
2002-02-28 07:33:42 51°17.921 2°51.595 17 196 5.2 99630 84
2002-02-28 07:33:47 51°17.927 2°51.567 17.3 204 5.2 99630 84
2002-02-28 07:33:52 51°17.934 2°51.539 18.8 200 5.2 99620 84
2002-02-28 07:33:57 51°17.94 2°51.512 19.9 198 5.2 99620 84
2002-02-28 07:34:02 51°17.946 2°51.483 15.6 196 5.2 99590 85
2002-02-28 07:34:07 51°17.952 2°51.455 17.6 199 5.2 99590 85
2002-02-28 07:34:12 51°17.959 2°51.428 16.4 196 5.2 99600 85
2002-02-28 07:34:17 51°17.965 2°51.4 16.6 196 5.2 99600 85
2002-02-28 07:34:22 51°17.973 2°51.372 16.1 203 5.2 99590 84
2002-02-28 07:34:27 51°17.98 2°51.345 17.6 200 5.2 99590 84
2002-02-28 07:34:32 51°17.988 2°51.318 15.4 200 5.2 99580 85
2002-02-28 07:34:37 51°17.995 2°51.291 16.8 202 5.2 99580 85
2002-02-28 07:34:42 51°18.004 2°51.264 15.5 202 5.2 99620 85
2002-02-28 07:34:47 51°18.012 2°51.237 15.2 199 5.2 99620 85
2002-02-28 07:34:52 51°18.021 2°51.21 15.5 198 5.3 99600 85
2002-02-28 07:34:57 51°18.029 2°51.184 17.9 204 5.3 99600 85
2002-02-28 07:35:02 51°18.037 2°51.157 17 203 5.2 99610 85
2002-02-28 07:35:07 51°18.046 2°51.13 17.3 205 5.2 99610 85
2002-02-28 07:35:12 51°18.054 2°51.103 14.7 205 5.3 99600 85
2002-02-28 07:35:17 51°18.061 2°51.076 17.4 204 5.3 99600 85
2002-02-28 07:35:21 51°18.068 2°51.054 15.1 196 5.2 99580 84
2002-02-28 07:35:27 51°18.076 2°51.021 17.9 199 5.2 99580 84
2002-02-28 07:35:32 51°18.083 2°50.993 17.2 201 5.2 99610 84
2002-02-28 07:35:37 51°18.089 2°50.965 16.8 195 5.2 99610 84
2002-02-28 07:35:42 51°18.095 2°50.936 17.4 194 5.2 99620 84
2002-02-28 07:35:47 51°18.101 2°50.908 15.1 195 5.2 99620 84
2002-02-28 07:35:52 51°18.106 2°50.879 18.6 195 5.3 99600 85
2002-02-28 07:35:57 51°18.112 2°50.851 18.5 196 5.3 99600 85
2002-02-28 07:36:01 51°18.116 2°50.828 18.6 198 5.3 99610 85
2002-02-28 07:36:07 51°18.122 2°50.793 19 199 5.3 99610 85
2002-02-28 07:36:12 51°18.128 2°50.764 18.1 203 5.3 99590 85
2002-02-28 07:36:17 51°18.133 2°50.736 16.6 191 5.3 99590 85
2002-02-28 07:36:22 51°18.139 2°50.707 18.8 198 5.3 99570 85
2002-02-28 07:36:27 51°18.144 2°50.678 20.6 192 5.3 99570 85
2002-02-28 07:36:32 51°18.15 2°50.649 21 198 5.3 99580 85
2002-02-28 07:36:37 51°18.156 2°50.622 20.5 199 5.3 99580 85
2002-02-28 07:36:42 51°18.162 2°50.594 20.3 196 5.3 99600 85
2002-02-28 07:36:47 51°18.168 2°50.566 19.3 197 5.3 99600 85
2002-02-28 07:36:52 51°18.174 2°50.537 18 193 5.3 99590 85
2002-02-28 07:36:57 51°18.18 2°50.509 18.4 196 5.3 99590 85
2002-02-28 07:37:02 51°18.186 2°50.481 19.7 197 5.3 99550 84
2002-02-28 07:37:06 51°18.191 2°50.459 20.6 200 5.3 99550 84
2002-02-28 07:37:11 51°18.198 2°50.431 21.2 198 5.3 99580 84
2002-02-28 07:37:17 51°18.204 2°50.397 20.4 198 5.3 99580 84
2002-02-28 07:37:22 51°18.21 2°50.368 21 197 5.3 99570 84
2002-02-28 07:37:27 51°18.215 2°50.34 20.1 197 5.3 99570 84
2002-02-28 07:37:32 51°18.221 2°50.312 21 195 5.3 99560 84
2002-02-28 07:37:37 51°18.227 2°50.284 20.6 201 5.3 99560 84
2002-02-28 07:37:42 51°18.234 2°50.257 19 199 5.3 99590 84
2002-02-28 07:37:47 51°18.24 2°50.232 19 200 5.3 99590 84
2002-02-28 07:37:52 51°18.246 2°50.21 17.7 203 5.3 99580 84
2002-02-28 07:37:57 51°18.251 2°50.188 15.7 202 5.3 99580 84
2002-02-28 07:38:02 51°18.255 2°50.168 18.5 205 5.3 99550 84
2002-02-28 07:38:07 51°18.258 2°50.148 16.4 204 5.3 99550 84
2002-02-28 07:38:12 51°18.261 2°50.13 19.9 202 5.4 99620 84
2002-02-28 07:38:17 51°18.263 2°50.113 17.9 201 5.4 99620 84
2002-02-28 07:38:22 51°18.266 2°50.097 18.9 196 5.4 99620 84
2002-02-28 07:38:27 51°18.268 2°50.082 18.9 203 5.4 99620 84
2002-02-28 07:38:32 51°18.27 2°50.067 18.4 208 5.4 99600 84
2002-02-28 07:38:37 51°18.272 2°50.053 18.2 198 5.4 99600 84
2002-02-28 07:38:42 51°18.274 2°50.039 18 203 5.4 99590 84
2002-02-28 07:38:47 51°18.277 2°50.027 17.9 202 5.4 99590 84
2002-02-28 07:38:52 51°18.278 2°50.015 17.1 209 5.4 99590 84
2002-02-28 07:38:57 51°18.281 2°50.004 15.3 212 5.4 99590 84
2002-02-28 07:39:02 51°18.282 2°49.993 17.2 201 5.4 99610 84
2002-02-28 07:39:07 51°18.284 2°49.983 15.5 196 5.4 99610 84
2002-02-28 07:39:12 51°18.286 2°49.973 17.7 205 5.4 99620 84
2002-02-28 07:39:18 51°18.287 2°49.962 17.3 203 5.4 99620 84
2002-02-28 07:39:22 51°18.288 2°49.954 16.9 201 5.4 99620 84
2002-02-28 07:39:27 51°18.289 2°49.946 17.7 198 5.4 99620 84
2002-02-28 07:39:32 51°18.289 2°49.937 14.8 207 5.4 99620 84
2002-02-28 07:39:37 51°18.29 2°49.929 19.4 198 5.4 99620 84
2002-02-28 07:39:42 51°18.29 2°49.921 18.3 199 5.4 99610 84
2002-02-28 07:39:47 51°18.29 2°49.913 16.8 194 5.4 99610 84
2002-02-28 07:39:52 51°18.29 2°49.906 19.2 198 5.4 99610 84
2002-02-28 07:39:57 51°18.29 2°49.899 16.1 199 5.4 99610 84
2002-02-28 07:40:02 51°18.29 2°49.892 16 189 5.4 99620 84
2002-02-28 07:40:07 51°18.29 2°49.884 13.9 192 5.4 99620 84
2002-02-28 07:40:12 51°18.289 2°49.877 15.4 177 5.4 99610 84
2002-02-28 07:40:17 51°18.288 2°49.87 18.2 184 5.4 99610 84
2002-02-28 07:40:22 51°18.288 2°49.863 15.7 187 5.5 99620 84
2002-02-28 07:40:27 51°18.287 2°49.857 17.3 190 5.5 99620 84
2002-02-28 07:40:32 51°18.287 2°49.851 15.5 190 5.5 99600 85
2002-02-28 07:40:37 51°18.286 2°49.845 13.8 192 5.5 99600 85
2002-02-28 07:40:42 51°18.286 2°49.842 18.1 187 5.5 99590 85
2002-02-28 07:40:47 51°18.286 2°49.839 14.6 186 5.5 99590 85
2002-02-28 07:40:52 51°18.286 2°49.837 16.7 193 5.5 99590 85
2002-02-28 07:40:57 51°18.286 2°49.836 13.8 197 5.5 99590 85
2002-02-28 07:41:02 51°18.286 2°49.836 16.3 199 5.5 99590 85
2002-02-28 07:41:07 51°18.287 2°49.835 16.3 199 5.5 99590 85
2002-02-28 07:41:12 51°18.287 2°49.834 16.5 207 5.5 99580 85
2002-02-28 07:41:17 51°18.288 2°49.834 16.8 204 5.5 99580 85
2002-02-28 07:41:21 51°18.288 2°49.834 14.7 206 5.6 99590 84
2002-02-28 07:41:27 51°18.288 2°49.834 12.3 207 5.6 99590 84
2002-02-28 07:41:32 51°18.288 2°49.834 14.4 209 5.6 99600 84
2002-02-28 07:41:38 51°18.289 2°49.834 11.4 208 5.6 99600 84
2002-02-28 07:41:43 51°18.289 2°49.834 12.8 215 5.5 99590 84
2002-02-28 07:41:48 51°18.289 2°49.834 12 207 5.5 99590 84
2002-02-28 07:41:52 51°18.289 2°49.835 7.9 209 5.5 99590 84
2002-02-28 07:41:57 51°18.289 2°49.836 4.7 223 5.5 99590 84
2002-02-28 07:42:02 51°18.289 2°49.836 6.7 327 5.5 99580 84
2002-02-28 07:42:07 51°18.289 2°49.837 6.8 220 5.5 99580 84
2002-02-28 07:42:12 51°18.289 2°49.837 7.8 213 5.5 99590 84
2002-02-28 07:42:17 51°18.288 2°49.838 7.1 210 5.5 99590 84
2002-02-28 07:42:22 51°18.288 2°49.839 4.9 206 5.4 99580 84
2002-02-28 07:42:27 51°18.288 2°49.84 3.5 248 5.4 99580 84
2002-02-28 07:42:32 51°18.287 2°49.841 4.1 240 5.4 99600 83
2002-02-28 07:42:37 51°18.287 2°49.842 3.2 240 5.4 99600 83
2002-02-28 07:42:42 51°18.287 2°49.842 8.9 253 5.4 99600 83
2002-02-28 07:42:47 51°18.286 2°49.843 4.4 237 5.4 99600 83
2002-02-28 07:42:52 51°18.285 2°49.844 11.7 246 5.5 99610 84
2002-02-28 07:42:57 51°18.285 2°49.845 6.8 246 5.5 99610 84
2002-02-28 07:43:02 51°18.284 2°49.845 13.8 257 5.5 99610 84
2002-02-28 07:43:07 51°18.284 2°49.845 15.8 269 5.5 99610 84
2002-02-28 07:43:11 51°18.284 2°49.846 14.4 255 5.5 99600 84
2002-02-28 07:43:17 51°18.284 2°49.846 17 258 5.5 99600 84
2002-02-28 07:43:22 51°18.283 2°49.846 15.4 261 5.5 99610 84
2002-02-28 07:43:26 51°18.283 2°49.847 16.5 262 5.5 99610 84
2002-02-28 07:43:32 51°18.283 2°49.847 14.8 262 5.4 99600 83
2002-02-28 07:43:37 51°18.282 2°49.847 15.9 271 5.4 99600 83
2002-02-28 07:43:42 51°18.282 2°49.847 15.2 250 5.4 99600 83
2002-02-28 07:43:47 51°18.282 2°49.848 14.6 267 5.4 99600 83
2002-02-28 07:43:52 51°18.282 2°49.848 14.1 259 5.4 99600 83
2002-02-28 07:43:57 51°18.282 2°49.848 13.3 249 5.4 99600 83
2002-02-28 07:44:02 51°18.281 2°49.849 15.8 249 5.4 99600 83
2002-02-28 07:44:07 51°18.281 2°49.849 14.4 263 5.4 99600 83
2002-02-28 07:44:12 51°18.281 2°49.849 13.4 254 5.4 99590 83
2002-02-28 07:44:17 51°18.281 2°49.849 14.2 254 5.4 99590 83
2002-02-28 07:44:22 51°18.281 2°49.85 13.8 252 5.3 99580 83
2002-02-28 07:44:27 51°18.281 2°49.85 13.7 261 5.3 99580 83
2002-02-28 07:44:32 51°18.281 2°49.85 12 252 5.4 99600 83
2002-02-28 07:44:37 51°18.281 2°49.851 15.7 261 5.4 99600 83
2002-02-28 07:44:42 51°18.28 2°49.85 12.3 262 5.4 99600 83
2002-02-28 07:44:47 51°18.28 2°49.851 11.8 253 5.4 99600 83
2002-02-28 07:44:52 51°18.28 2°49.851 10.7 259 5.4 99600 83
2002-02-28 07:44:57 51°18.28 2°49.851 9.7 239 5.4 99600 83
2002-02-28 07:45:02 51°18.28 2°49.851 7.8 237 5.4 99590 84
2002-02-28 07:45:07 51°18.28 2°49.851 11.3 260 5.4 99590 84
2002-02-28 07:45:12 51°18.28 2°49.85 10.2 258 5.4 99590 84
2002-02-28 07:45:17 51°18.28 2°49.85 9.5 259 5.4 99590 84
2002-02-28 07:45:22 51°18.28 2°49.85 8.2 252 5.4 99590 84
2002-02-28 07:45:27 51°18.28 2°49.85 3.2 242 5.4 99590 84
2002-02-28 07:45:32 51°18.28 2°49.85 5.7 249 5.5 99590 84
2002-02-28 07:45:37 51°18.279 2°49.85 3 241 5.5 99590 84
2002-02-28 07:45:42 51°18.279 2°49.851 6.2 238 5.5 99600 84
2002-02-28 07:45:47 51°18.279 2°49.851 3.7 237 5.5 99600 84
2002-02-28 07:45:52 51°18.279 2°49.852 3.6 241 5.4 99600 84
2002-02-28 07:45:57 51°18.278 2°49.853 3.4 245 5.4 99600 84
2002-02-28 07:46:02 51°18.278 2°49.853 2 232 5.4 99600 83
2002-02-28 07:46:07 51°18.277 2°49.854 7.6 248 5.4 99600 83
2002-02-28 07:46:12 51°18.277 2°49.855 8.7 264 5.4 99590 83
2002-02-28 07:46:17 51°18.276 2°49.856 9 253 5.4 99590 83
2002-02-28 07:46:22 51°18.276 2°49.857 8.7 252 5.4 99590 84
2002-02-28 07:46:27 51°18.275 2°49.858 7.6 247 5.4 99590 84
2002-02-28 07:46:32 51°18.274 2°49.859 11.7 261 5.4 99600 84
2002-02-28 07:46:37 51°18.273 2°49.86 11.5 268 5.4 99600 84
2002-02-28 07:46:42 51°18.272 2°49.86 15.3 260 5.5 99610 84
2002-02-28 07:46:47 51°18.272 2°49.862 15.8 265 5.5 99610 84
2002-02-28 07:46:52 51°18.271 2°49.862 15.6 259 5.5 99600 84
2002-02-28 07:46:57 51°18.27 2°49.863 9.6 252 5.5 99600 84
2002-02-28 07:47:02 51°18.27 2°49.864 13.8 265 5.5 99600 84
2002-02-28 07:47:07 51°18.27 2°49.864 5 245 5.5 99600 84
2002-02-28 07:47:12 51°18.27 2°49.864 11.9 251 5.4 99610 84
2002-02-28 07:47:18 51°18.269 2°49.864 9.3 246 5.4 99610 84
2002-02-28 07:47:22 51°18.27 2°49.865 8.7 251 5.4 99590 83
2002-02-28 07:47:27 51°18.27 2°49.864 11.7 260 5.4 99590 83
2002-02-28 07:47:32 51°18.27 2°49.864 5.6 241 5.4 99600 84
2002-02-28 07:47:37 51°18.27 2°49.864 8.2 252 5.4 99600 84
2002-02-28 07:47:42 51°18.27 2°49.863 9 255 5.4 99600 84
2002-02-28 07:47:47 51°18.27 2°49.863 7.9 254 5.4 99600 84
2002-02-28 07:47:52 51°18.27 2°49.863 6.4 247 5.4 99630 84
2002-02-28 07:47:57 51°18.27 2°49.862 2.8 241 5.4 99630 84
2002-02-28 07:48:02 51°18.271 2°49.862 4 318 5.4 99640 84
2002-02-28 07:48:07 51°18.27 2°49.862 4.5 246 5.4 99640 84
2002-02-28 07:48:12 51°18.27 2°49.862 9.2 252 5.4 99660 84
2002-02-28 07:48:17 51°18.271 2°49.862 5.7 235 5.4 99660 84
2002-02-28 07:48:22 51°18.271 2°49.861 6.3 248 5.4 99640 84
2002-02-28 07:48:27 51°18.271 2°49.861 6.5 241 5.4 99640 84
2002-02-28 07:48:31 51°18.271 2°49.861 5.2 250 5.3 99630 83
2002-02-28 07:48:37 51°18.271 2°49.861 3.2 226 5.3 99630 83
2002-02-28 07:48:42 51°18.272 2°49.86 10.1 250 5.4 99630 84
2002-02-28 07:48:47 51°18.272 2°49.86 7.5 243 5.4 99630 84
2002-02-28 07:48:52 51°18.272 2°49.859 1.9 252 5.3 99670 84
2002-02-28 07:48:57 51°18.272 2°49.859 6.2 250 5.3 99670 84
2002-02-28 07:49:02 51°18.272 2°49.859 3.7 233 5.3 99630 84
2002-02-28 07:49:07 51°18.272 2°49.858 4.4 243 5.3 99630 84
2002-02-28 07:49:12 51°18.272 2°49.858 4 236 5.4 99630 84
2002-02-28 07:49:17 51°18.272 2°49.857 3.2 325 5.4 99630 84
2002-02-28 07:49:22 51°18.272 2°49.857 7.1 249 5.3 99640 84
2002-02-28 07:49:27 51°18.273 2°49.857 3.9 245 5.3 99640 84
2002-02-28 07:49:32 51°18.273 2°49.856 6.3 202 5.3 99640 84
2002-02-28 07:49:37 51°18.273 2°49.856 4.3 246 5.3 99640 84
2002-02-28 07:49:42 51°18.273 2°49.856 3.2 228 5.3 99650 83
2002-02-28 07:49:47 51°18.273 2°49.856 9.6 244 5.3 99650 83
2002-02-28 07:49:52 51°18.273 2°49.856 4.3 234 5.3 99650 83
2002-02-28 07:49:57 51°18.274 2°49.856 3.6 248 5.3 99650 83
2002-02-28 07:50:02 51°18.274 2°49.856 4.1 246 5.3 99650 83
2002-02-28 07:50:07 51°18.274 2°49.856 2.8 228 5.3 99650 83
2002-02-28 07:50:12 51°18.274 2°49.855 6.3 259 5.3 99650 84
2002-02-28 07:50:17 51°18.275 2°49.855 5 203 5.3 99650 84
2002-02-28 07:50:22 51°18.275 2°49.855 3.3 283 5.3 99650 84
2002-02-28 07:50:27 51°18.275 2°49.854 4.4 235 5.3 99650 84
2002-02-28 07:50:32 51°18.275 2°49.854 4.2 246 5.3 99640 84
2002-02-28 07:50:37 51°18.276 2°49.854 8.2 242 5.3 99640 84
2002-02-28 07:50:42 51°18.276 2°49.854 4.8 215 5.3 99640 84
2002-02-28 07:50:47 51°18.276 2°49.854 4.1 242 5.3 99640 84
2002-02-28 07:50:52 51°18.276 2°49.854 4.6 249 5.3 99640 84
2002-02-28 07:50:57 51°18.276 2°49.854 2.8 230 5.3 99640 84
2002-02-28 07:51:02 51°18.276 2°49.854 2 259 5.3 99660 84
2002-02-28 07:51:07 51°18.276 2°49.854 1.3 226 5.3 99660 84
2002-02-28 07:51:12 51°18.275 2°49.854 2.4 134 5.4 99620 84
2002-02-28 07:51:17 51°18.275 2°49.854 5.4 263 5.4 99620 84
2002-02-28 07:51:22 51°18.275 2°49.854 3.4 214 5.4 99650 84
2002-02-28 07:51:27 51°18.275 2°49.854 6.1 211 5.4 99650 84
2002-02-28 07:51:32 51°18.275 2°49.853 3.4 231 5.4 99640 85
2002-02-28 07:51:37 51°18.275 2°49.853 2.5 235 5.4 99640 85
2002-02-28 07:51:42 51°18.275 2°49.853 5 230 5.5 99640 85
2002-02-28 07:51:47 51°18.275 2°49.853 3.3 243 5.5 99640 85
2002-02-28 07:51:52 51°18.275 2°49.853 4.9 231 5.4 99630 85
2002-02-28 07:51:57 51°18.275 2°49.853 2.4 322 5.4 99630 85
2002-02-28 07:52:02 51°18.276 2°49.853 1.6 254 5.5 99640 85
2002-02-28 07:52:07 51°18.276 2°49.853 4.6 240 5.5 99640 85
2002-02-28 07:52:12 51°18.275 2°49.853 1.4 247 5.4 99620 85
2002-02-28 07:52:17 51°18.275 2°49.852 3.6 215 5.4 99620 85
2002-02-28 07:52:22 51°18.275 2°49.852 4.7 253 5.5 99640 85
2002-02-28 07:52:27 51°18.275 2°49.852 2.6 232 5.5 99640 85
2002-02-28 07:52:32 51°18.275 2°49.852 5.5 217 5.5 99650 85
2002-02-28 07:52:37 51°18.275 2°49.852 3.4 241 5.5 99650 85
2002-02-28 07:52:42 51°18.276 2°49.852 3.5 229 5.5 99680 85
2002-02-28 07:52:47 51°18.276 2°49.851 3.3 203 5.5 99680 85
2002-02-28 07:52:52 51°18.276 2°49.851 4.1 250 5.5 99650 85
2002-02-28 07:52:57 51°18.276 2°49.851 3.4 205 5.5 99650 85
2002-02-28 07:53:02 51°18.276 2°49.851 3.3 219 5.5 99650 85
2002-02-28 07:53:07 51°18.276 2°49.851 3.4 238 5.5 99650 85
2002-02-28 07:53:12 51°18.276 2°49.851 4.8 231 5.4 99630 84
2002-02-28 07:53:17 51°18.276 2°49.85 3.9 257 5.4 99630 84
2002-02-28 07:53:21 51°18.276 2°49.85 3.4 264 5.4 99640 84
2002-02-28 07:53:27 51°18.276 2°49.85 4 216 5.4 99640 84
2002-02-28 07:53:31 51°18.276 2°49.85 2.7 255 5.4 99630 84
2002-02-28 07:53:37 51°18.276 2°49.85 7.6 235 5.4 99630 84
2002-02-28 07:53:42 51°18.276 2°49.849 6.9 228 5.5 99630 85
2002-02-28 07:53:47 51°18.277 2°49.849 7 205 5.5 99630 85
2002-02-28 07:53:51 51°18.276 2°49.849 4.8 220 5.5 99660 85
2002-02-28 07:53:57 51°18.276 2°49.849 3.6 210 5.5 99660 85
2002-02-28 07:54:02 51°18.277 2°49.85 4.6 256 5.5 99630 85
2002-02-28 07:54:07 51°18.277 2°49.849 3.1 218 5.5 99630 85
2002-02-28 07:54:12 51°18.277 2°49.849 2.3 241 5.5 99650 85
2002-02-28 07:54:17 51°18.276 2°49.849 3.8 243 5.5 99650 85
2002-02-28 07:54:22 51°18.276 2°49.848 1.6 234 5.5 99630 85
2002-02-28 07:54:27 51°18.277 2°49.849 9.1 244 5.5 99630 85
2002-02-28 07:54:32 51°18.277 2°49.849 7.5 244 5.5 99640 85
2002-02-28 07:54:37 51°18.277 2°49.848 4.3 240 5.5 99640 85
2002-02-28 07:54:42 51°18.277 2°49.849 5 236 5.5 99620 85
2002-02-28 07:54:47 51°18.276 2°49.848 3.6 135 5.5 99620 85
2002-02-28 07:54:52 51°18.277 2°49.848 3 224 5.5 99630 85
2002-02-28 07:54:57 51°18.277 2°49.848 6.2 243 5.5 99630 85
2002-02-28 07:55:02 51°18.277 2°49.848 2.5 230 5.5 99640 84
2002-02-28 07:55:07 51°18.277 2°49.847 2.5 248 5.5 99640 84
2002-02-28 07:55:12 51°18.277 2°49.847 4.1 238 5.4 99650 85
2002-02-28 07:55:17 51°18.276 2°49.847 10.4 230 5.4 99650 85
2002-02-28 07:55:22 51°18.277 2°49.847 7.2 205 5.4 99650 84
2002-02-28 07:55:27 51°18.276 2°49.847 4.5 213 5.4 99650 84
2002-02-28 07:55:31 51°18.276 2°49.847 4 222 5.4 99650 85
2002-02-28 07:55:37 51°18.276 2°49.847 3.8 233 5.4 99650 85
2002-02-28 07:55:42 51°18.276 2°49.847 3.8 230 5.5 99620 85
2002-02-28 07:55:47 51°18.277 2°49.847 3.5 227 5.5 99620 85
2002-02-28 07:55:52 51°18.277 2°49.847 4.4 246 5.5 99630 85
2002-02-28 07:55:57 51°18.277 2°49.847 1.9 228 5.5 99630 85
2002-02-28 07:56:02 51°18.276 2°49.847 5.2 249 5.5 99630 85
2002-02-28 07:56:07 51°18.277 2°49.847 3.8 258 5.5 99630 85
2002-02-28 07:56:12 51°18.277 2°49.846 3.1 241 5.5 99650 85
2002-02-28 07:56:17 51°18.276 2°49.846 2.4 250 5.5 99650 85
2002-02-28 07:56:22 51°18.276 2°49.846 2.9 243 5.4 99640 85
2002-02-28 07:56:27 51°18.276 2°49.846 7.3 240 5.4 99640 85
2002-02-28 07:56:32 51°18.276 2°49.845 4.8 242 5.5 99650 85
2002-02-28 07:56:37 51°18.276 2°49.845 1.2 260 5.5 99650 85
2002-02-28 07:56:42 51°18.276 2°49.845 5.7 228 5.5 99650 85
2002-02-28 07:56:47 51°18.276 2°49.844 3.6 244 5.5 99650 85
2002-02-28 07:56:52 51°18.276 2°49.844 4.2 238 5.5 99640 85
2002-02-28 07:56:57 51°18.276 2°49.844 2.5 232 5.5 99640 85
2002-02-28 07:57:02 51°18.276 2°49.843 1.3 242 5.5 99650 85
2002-02-28 07:57:07 51°18.276 2°49.843 4.1 240 5.5 99650 85
2002-02-28 07:57:12 51°18.276 2°49.843 1.3 230 5.5 99640 85
2002-02-28 07:57:18 51°18.276 2°49.843 7.5 249 5.5 99640 85
2002-02-28 07:57:22 51°18.276 2°49.842 2.8 254 5.4 99650 85
2002-02-28 07:57:27 51°18.276 2°49.842 3.9 214 5.4 99650 85
2002-02-28 07:57:32 51°18.276 2°49.842 4 218 5.5 99630 85
2002-02-28 07:57:37 51°18.276 2°49.842 4.7 252 5.5 99630 85
2002-02-28 07:57:42 51°18.277 2°49.842 2.8 223 5.5 99640 85
2002-02-28 07:57:47 51°18.277 2°49.841 8 247 5.5 99640 85
2002-02-28 07:57:52 51°18.277 2°49.841 4.7 227 5.4 99630 85
2002-02-28 07:57:57 51°18.277 2°49.841 3.9 229 5.4 99630 85
2002-02-28 07:58:01 51°18.277 2°49.841 5.9 229 5.4 99650 84
2002-02-28 07:58:07 51°18.277 2°49.841 3.6 240 5.4 99650 84
2002-02-28 07:58:12 51°18.277 2°49.841 4.2 128 5.4 99630 84
2002-02-28 07:58:17 51°18.278 2°49.841 3.1 234 5.4 99630 84
2002-02-28 07:58:22 51°18.278 2°49.841 3.4 317 5.3 99630 84
2002-02-28 07:58:27 51°18.278 2°49.84 4.6 234 5.3 99630 84
2002-02-28 07:58:32 51°18.278 2°49.84 2.8 316 5.3 99600 84
2002-02-28 07:58:37 51°18.278 2°49.84 4.1 242 5.3 99600 84
2002-02-28 07:58:42 51°18.278 2°49.84 3.5 225 5.3 99620 84
2002-02-28 07:58:47 51°18.278 2°49.839 3 236 5.3 99620 84
2002-02-28 07:58:52 51°18.278 2°49.839 2.2 251 5.3 99600 84
2002-02-28 07:58:57 51°18.278 2°49.839 9.2 227 5.3 99600 84
2002-02-28 07:59:02 51°18.278 2°49.839 4.7 322 5.3 99610 84
2002-02-28 07:59:07 51°18.278 2°49.838 9.3 263 5.3 99610 84
2002-02-28 07:59:12 51°18.278 2°49.838 1.3 238 5.4 99610 85
2002-02-28 07:59:17 51°18.278 2°49.838 4 243 5.4 99610 85
2002-02-28 07:59:22 51°18.278 2°49.838 2.1 318 5.4 99610 85
2002-02-28 07:59:27 51°18.278 2°49.838 7.5 256 5.4 99610 85
2002-02-28 07:59:32 51°18.278 2°49.838 3.2 237 5.4 99590 85
2002-02-28 07:59:37 51°18.278 2°49.837 4.6 254 5.4 99590 85
2002-02-28 07:59:42 51°18.278 2°49.837 3 231 5.4 99600 85
2002-02-28 07:59:47 51°18.278 2°49.837 3.3 247 5.4 99600 85
2002-02-28 07:59:52 51°18.278 2°49.837 2.7 213 5.4 99590 85
2002-02-28 07:59:57 51°18.278 2°49.837 3.1 133 5.4 99590 85
2002-02-28 08:00:02 51°18.278 2°49.836 4.6 221 5.4 99590 85
2002-02-28 08:00:07 51°18.278 2°49.836 3.7 233 5.4 99590 85
2002-02-28 08:00:12 51°18.278 2°49.836 2.3 225 5.4 99600 85
2002-02-28 08:00:17 51°18.278 2°49.835 3.7 254 5.4 99600 85
2002-02-28 08:00:22 51°18.278 2°49.835 5.1 239 5.4 99610 85
2002-02-28 08:00:27 51°18.278 2°49.835 5.9 133 5.4 99610 85
2002-02-28 08:00:32 51°18.277 2°49.835 4.2 229 5.5 99600 85
2002-02-28 08:00:37 51°18.277 2°49.835 1.4 230 5.5 99600 85
2002-02-28 08:00:42 51°18.277 2°49.835 2.9 232 5.4 99620 85
2002-02-28 08:00:47 51°18.276 2°49.835 5.7 257 5.4 99620 85
2002-02-28 08:00:52 51°18.276 2°49.835 3.2 248 5.5 99610 85
2002-02-28 08:00:57 51°18.276 2°49.835 2.5 243 5.5 99610 85
2002-02-28 08:01:02 51°18.276 2°49.836 10 241 5.5 99600 86
2002-02-28 08:01:07 51°18.275 2°49.836 9.7 253 5.5 99600 86
2002-02-28 08:01:12 51°18.275 2°49.836 3.9 244 5.5 99610 85
2002-02-28 08:01:17 51°18.275 2°49.836 10.7 259 5.5 99610 85
2002-02-28 08:01:22 51°18.275 2°49.837 10.2 247 5.5 99600 85
2002-02-28 08:01:27 51°18.275 2°49.837 1 238 5.5 99600 85
2002-02-28 08:01:32 51°18.274 2°49.837 6.1 239 5.4 99600 85
2002-02-28 08:01:37 51°18.274 2°49.838 4 239 5.4 99600 85
2002-02-28 08:01:42 51°18.274 2°49.837 6.5 233 5.4 99600 85
2002-02-28 08:01:47 51°18.274 2°49.838 3.5 251 5.4 99600 85
2002-02-28 08:01:52 51°18.274 2°49.838 5.5 249 5.4 99600 85
2002-02-28 08:01:57 51°18.273 2°49.838 2.6 257 5.4 99600 85
2002-02-28 08:02:02 51°18.273 2°49.838 3.2 244 5.3 99600 85
2002-02-28 08:02:07 51°18.273 2°49.838 7.5 261 5.3 99600 85
2002-02-28 08:02:12 51°18.272 2°49.838 3.7 229 5.3 99600 85
2002-02-28 08:02:17 51°18.272 2°49.838 9.7 256 5.3 99600 85
2002-02-28 08:02:22 51°18.273 2°49.838 6.8 251 5.4 99590 85
2002-02-28 08:02:27 51°18.272 2°49.838 4.2 238 5.4 99590 85
2002-02-28 08:02:32 51°18.273 2°49.838 2.9 222 5.4 99600 85
2002-02-28 08:02:37 51°18.272 2°49.838 5.1 237 5.4 99600 85
2002-02-28 08:02:42 51°18.272 2°49.838 3.7 243 5.4 99610 86
2002-02-28 08:02:47 51°18.272 2°49.838 4.2 240 5.4 99610 86
2002-02-28 08:02:52 51°18.272 2°49.838 7.6 256 5.4 99600 85
2002-02-28 08:02:57 51°18.272 2°49.838 3 219 5.4 99600 85
2002-02-28 08:03:02 51°18.272 2°49.838 2.5 214 5.5 99600 85
2002-02-28 08:03:07 51°18.272 2°49.838 2 178 5.5 99600 85
2002-02-28 08:03:12 51°18.272 2°49.838 3 234 5.5 99610 86
2002-02-28 08:03:17 51°18.272 2°49.838 3.2 219 5.5 99610 86
2002-02-28 08:03:22 51°18.272 2°49.838 3.1 232 5.5 99610 86
2002-02-28 08:03:27 51°18.272 2°49.837 1.6 255 5.5 99610 86
2002-02-28 08:03:32 51°18.272 2°49.837 1.8 248 5.5 99590 85
2002-02-28 08:03:37 51°18.272 2°49.837 6.2 240 5.5 99590 85
2002-02-28 08:03:42 51°18.272 2°49.836 8.7 240 5.5 99600 86
2002-02-28 08:03:47 51°18.272 2°49.836 11.3 248 5.5 99600 86
2002-02-28 08:03:52 51°18.271 2°49.836 9.1 244 5.5 99610 86
2002-02-28 08:03:57 51°18.271 2°49.836 3.5 243 5.5 99610 86
2002-02-28 08:04:02 51°18.271 2°49.835 4 226 5.5 99600 86
2002-02-28 08:04:07 51°18.27 2°49.836 3.2 235 5.5 99600 86
2002-02-28 08:04:12 51°18.27 2°49.835 11.9 254 5.5 99610 86
2002-02-28 08:04:17 51°18.27 2°49.835 3.9 222 5.5 99610 86
2002-02-28 08:04:22 51°18.27 2°49.834 3.6 228 5.6 99600 86
2002-02-28 08:04:27 51°18.27 2°49.834 3.5 235 5.6 99600 86
2002-02-28 08:04:32 51°18.27 2°49.834 2.2 237 5.5 99600 86
2002-02-28 08:04:37 51°18.27 2°49.834 5.3 256 5.5 99600 86
2002-02-28 08:04:42 51°18.27 2°49.833 5.7 231 5.5 99600 86
2002-02-28 08:04:47 51°18.27 2°49.833 5.2 225 5.5 99600 86
2002-02-28 08:04:52 51°18.27 2°49.833 5.3 238 5.5 99600 86
2002-02-28 08:04:57 51°18.27 2°49.833 2.6 328 5.5 99600 86
2002-02-28 08:05:02 51°18.27 2°49.832 4.2 250 5.5 99600 85
2002-02-28 08:05:07 51°18.271 2°49.832 6.2 245 5.5 99600 85
2002-02-28 08:05:12 51°18.271 2°49.832 7.2 256 5.4 99580 85
2002-02-28 08:05:17 51°18.27 2°49.831 3.6 249 5.4 99580 85
2002-02-28 08:05:22 51°18.27 2°49.831 2.8 215 5.4 99600 85
2002-02-28 08:05:27 51°18.271 2°49.831 3.4 213 5.4 99600 85
2002-02-28 08:05:32 51°18.271 2°49.83 6.4 232 5.5 99600 85
2002-02-28 08:05:37 51°18.271 2°49.83 4.8 217 5.5 99600 85
2002-02-28 08:05:42 51°18.271 2°49.829 1.7 268 5.5 99600 85
2002-02-28 08:05:47 51°18.271 2°49.829 0.7 242 5.5 99600 85
2002-02-28 08:05:52 51°18.271 2°49.829 6 326 5.5 99600 85
2002-02-28 08:05:57 51°18.271 2°49.828 6.8 244 5.5 99600 85
2002-02-28 08:06:02 51°18.272 2°49.828 3.9 236 5.5 99610 85
2002-02-28 08:06:07 51°18.272 2°49.827 4.1 239 5.5 99610 85
2002-02-28 08:06:12 51°18.272 2°49.827 10 254 5.5 99610 86
2002-02-28 08:06:17 51°18.272 2°49.827 10.6 247 5.5 99610 86
2002-02-28 08:06:22 51°18.272 2°49.826 4.2 237 5.5 99610 86
2002-02-28 08:06:27 51°18.273 2°49.825 4.7 229 5.5 99610 86
2002-02-28 08:06:32 51°18.273 2°49.825 3.2 259 5.5 99600 85
2002-02-28 08:06:37 51°18.273 2°49.824 2.1 227 5.5 99600 85
2002-02-28 08:06:42 51°18.273 2°49.824 4.9 225 5.5 99590 85
2002-02-28 08:06:47 51°18.274 2°49.823 4.7 259 5.5 99590 85
2002-02-28 08:06:52 51°18.274 2°49.823 3.6 229 5.4 99590 85
2002-02-28 08:06:57 51°18.274 2°49.823 4.5 195 5.4 99590 85
2002-02-28 08:07:02 51°18.274 2°49.823 4.3 249 5.4 99590 85
2002-02-28 08:07:07 51°18.275 2°49.822 2.6 208 5.4 99590 85
2002-02-28 08:07:12 51°18.275 2°49.822 5.1 243 5.4 99590 85
2002-02-28 08:07:17 51°18.275 2°49.822 7.3 231 5.4 99590 85
2002-02-28 08:07:22 51°18.275 2°49.822 1.5 245 5.4 99600 85
2002-02-28 08:07:27 51°18.275 2°49.821 1.2 235 5.4 99600 85
2002-02-28 08:07:32 51°18.276 2°49.821 4.4 238 5.4 99600 85
2002-02-28 08:07:37 51°18.276 2°49.821 3.6 240 5.4 99600 85
2002-02-28 08:07:42 51°18.276 2°49.821 3.6 252 5.4 99610 85
2002-02-28 08:07:47 51°18.276 2°49.821 3.7 233 5.4 99610 85
2002-02-28 08:07:52 51°18.276 2°49.821 4.4 201 5.4 99610 85
2002-02-28 08:07:57 51°18.276 2°49.821 2.1 252 5.4 99610 85
2002-02-28 08:08:02 51°18.276 2°49.821 2.9 241 5.4 99590 85
2002-02-28 08:08:07 51°18.276 2°49.821 2.4 255 5.4 99590 85
2002-02-28 08:08:12 51°18.276 2°49.821 4.4 220 5.4 99600 86
2002-02-28 08:08:17 51°18.276 2°49.821 3.9 315 5.4 99600 86
2002-02-28 08:08:22 51°18.276 2°49.821 3.4 250 5.5 99600 86
2002-02-28 08:08:27 51°18.276 2°49.822 5.6 231 5.5 99600 86
2002-02-28 08:08:31 51°18.275 2°49.821 5.4 226 5.5 99610 86
2002-02-28 08:08:37 51°18.276 2°49.822 4.1 316 5.5 99610 86
2002-02-28 08:08:42 51°18.275 2°49.822 4.2 216 5.4 99600 85
2002-02-28 08:08:47 51°18.275 2°49.822 3.2 253 5.4 99600 85
2002-02-28 08:08:52 51°18.275 2°49.822 7 247 5.4 99600 85
2002-02-28 08:08:57 51°18.275 2°49.823 3.1 242 5.4 99600 85
2002-02-28 08:09:02 51°18.275 2°49.822 4.9 241 5.4 99600 85
2002-02-28 08:09:07 51°18.275 2°49.824 2.9 237 5.4 99600 85
2002-02-28 08:09:12 51°18.276 2°49.825 1.3 319 5.4 99600 85
2002-02-28 08:09:17 51°18.275 2°49.825 2.8 255 5.4 99600 85
2002-02-28 08:09:22 51°18.275 2°49.826 7 236 5.4 99610 85
2002-02-28 08:09:27 51°18.275 2°49.826 4.9 244 5.4 99610 85
2002-02-28 08:09:32 51°18.274 2°49.826 5.7 243 5.4 99590 85
2002-02-28 08:09:37 51°18.273 2°49.826 6.7 248 5.4 99590 85
2002-02-28 08:09:42 51°18.273 2°49.827 10.2 245 5.5 99610 85
2002-02-28 08:09:47 51°18.273 2°49.827 7.8 250 5.5 99610 85
2002-02-28 08:09:52 51°18.273 2°49.827 7 243 5.5 99610 86
2002-02-28 08:09:57 51°18.273 2°49.828 9 246 5.5 99610 86
2002-02-28 08:10:02 51°18.273 2°49.828 5.9 234 5.5 99590 86
2002-02-28 08:10:07 51°18.273 2°49.829 2.4 239 5.5 99590 86
2002-02-28 08:10:12 51°18.272 2°49.829 3.5 227 5.4 99600 86
2002-02-28 08:10:17 51°18.272 2°49.829 3.4 241 5.4 99600 86
2002-02-28 08:10:22 51°18.272 2°49.829 5.6 220 5.4 99590 85
2002-02-28 08:10:27 51°18.272 2°49.829 2.2 245 5.4 99590 85
2002-02-28 08:10:32 51°18.272 2°49.829 4.1 243 5.4 99590 85
2002-02-28 08:10:37 51°18.271 2°49.829 2.8 229 5.4 99590 85
2002-02-28 08:10:42 51°18.271 2°49.83 3.5 238 5.4 99600 85
2002-02-28 08:10:47 51°18.272 2°49.83 3.1 241 5.4 99600 85
2002-02-28 08:10:52 51°18.271 2°49.83 3.5 234 5.4 99590 85
2002-02-28 08:10:57 51°18.271 2°49.83 3.4 237 5.4 99590 85
2002-02-28 08:11:02 51°18.271 2°49.83 4.2 241 5.4 99590 85
2002-02-28 08:11:07 51°18.271 2°49.83 11.5 252 5.4 99590 85
2002-02-28 08:11:12 51°18.271 2°49.83 3.8 244 5.4 99600 85
2002-02-28 08:11:18 51°18.271 2°49.83 4.1 239 5.4 99600 85
2002-02-28 08:11:22 51°18.271 2°49.83 3.5 245 5.4 99590 85
2002-02-28 08:11:27 51°18.271 2°49.83 4.9 238 5.4 99590 85
2002-02-28 08:11:32 51°18.271 2°49.829 6.2 255 5.4 99590 85
2002-02-28 08:11:37 51°18.271 2°49.829 4.7 228 5.4 99590 85
2002-02-28 08:11:42 51°18.27 2°49.828 3.1 243 5.4 99600 85
2002-02-28 08:11:48 51°18.271 2°49.828 5.6 222 5.4 99600 85
2002-02-28 08:11:52 51°18.271 2°49.827 4 133 5.4 99600 85
2002-02-28 08:11:57 51°18.271 2°49.827 5.8 233 5.4 99600 85
2002-02-28 08:12:02 51°18.271 2°49.827 3.1 234 5.4 99580 85
2002-02-28 08:12:07 51°18.271 2°49.827 4 228 5.4 99580 85
2002-02-28 08:12:12 51°18.271 2°49.826 3.7 272 5.4 99590 85
2002-02-28 08:12:17 51°18.271 2°49.826 4 243 5.4 99590 85
2002-02-28 08:12:22 51°18.271 2°49.826 1.7 245 5.4 99580 85
2002-02-28 08:12:27 51°18.271 2°49.825 1.3 226 5.4 99580 85
2002-02-28 08:12:32 51°18.271 2°49.824 3.9 219 5.4 99610 85
2002-02-28 08:12:37 51°18.272 2°49.824 2.1 318 5.4 99610 85
2002-02-28 08:12:42 51°18.272 2°49.823 6.8 218 5.4 99600 85
2002-02-28 08:12:47 51°18.272 2°49.823 5.1 230 5.4 99600 85
2002-02-28 08:12:52 51°18.272 2°49.823 6.1 317 5.5 99600 85
2002-02-28 08:12:57 51°18.272 2°49.822 4.5 266 5.5 99600 85
2002-02-28 08:13:02 51°18.272 2°49.822 3.9 128 5.5 99610 85
2002-02-28 08:13:07 51°18.273 2°49.821 5.9 221 5.5 99610 85
2002-02-28 08:13:11 51°18.273 2°49.821 7.4 318 5.5 99600 85
2002-02-28 08:13:17 51°18.273 2°49.821 4.5 243 5.5 99600 85
2002-02-28 08:13:22 51°18.273 2°49.821 3.3 227 5.5 99600 85
2002-02-28 08:13:27 51°18.273 2°49.821 6.9 236 5.5 99600 85
2002-02-28 08:13:32 51°18.273 2°49.821 5.2 228 5.5 99610 85
2002-02-28 08:13:38 51°18.273 2°49.821 4.4 250 5.5 99610 85
2002-02-28 08:13:42 51°18.274 2°49.821 1.9 229 5.4 99580 85
2002-02-28 08:13:47 51°18.273 2°49.82 10.7 253 5.4 99580 85
2002-02-28 08:13:52 51°18.274 2°49.821 5.9 243 5.4 99590 85
2002-02-28 08:13:57 51°18.274 2°49.821 4.6 234 5.4 99590 85
2002-02-28 08:14:02 51°18.273 2°49.821 5.7 318 5.4 99600 85
2002-02-28 08:14:07 51°18.274 2°49.82 5.8 244 5.4 99600 85
2002-02-28 08:14:12 51°18.274 2°49.82 1.2 214 5.4 99610 85
2002-02-28 08:14:17 51°18.274 2°49.82 2.8 222 5.4 99610 85
2002-02-28 08:14:22 51°18.274 2°49.82 5.8 227 5.4 99600 85
2002-02-28 08:14:27 51°18.274 2°49.82 2.8 249 5.4 99600 85
2002-02-28 08:14:32 51°18.274 2°49.82 7.1 247 5.4 99600 85
2002-02-28 08:14:37 51°18.274 2°49.82 3.6 245 5.4 99600 85
2002-02-28 08:14:42 51°18.274 2°49.82 3.8 240 5.4 99620 85
2002-02-28 08:14:47 51°18.274 2°49.82 3.7 239 5.4 99620 85
2002-02-28 08:14:52 51°18.274 2°49.82 4.4 243 5.4 99600 85
2002-02-28 08:14:57 51°18.274 2°49.82 4 229 5.4 99600 85
2002-02-28 08:15:02 51°18.274 2°49.82 3.4 237 5.4 99600 85
2002-02-28 08:15:07 51°18.274 2°49.82 4.6 316 5.4 99600 85
2002-02-28 08:15:12 51°18.274 2°49.82 2.8 267 5.4 99610 85
2002-02-28 08:15:17 51°18.273 2°49.82 3.3 125 5.4 99610 85
2002-02-28 08:15:22 51°18.274 2°49.821 4.3 260 5.5 99610 85
2002-02-28 08:15:27 51°18.274 2°49.821 4.6 233 5.5 99610 85
2002-02-28 08:15:32 51°18.274 2°49.821 2.2 203 5.5 99610 85
2002-02-28 08:15:37 51°18.274 2°49.821 3 244 5.5 99610 85
2002-02-28 08:15:42 51°18.273 2°49.82 2.9 232 5.5 99610 85
2002-02-28 08:15:47 51°18.273 2°49.82 3.2 225 5.5 99610 85
2002-02-28 08:15:52 51°18.272 2°49.82 5.5 252 5.5 99620 85
2002-02-28 08:15:57 51°18.272 2°49.82 3.7 213 5.5 99620 85
2002-02-28 08:16:02 51°18.271 2°49.82 3.7 239 5.6 99610 85
2002-02-28 08:16:07 51°18.272 2°49.821 6 250 5.6 99610 85
2002-02-28 08:16:12 51°18.271 2°49.82 5.8 242 5.6 99620 85
2002-02-28 08:16:17 51°18.271 2°49.821 3.7 244 5.6 99620 85
2002-02-28 08:16:22 51°18.271 2°49.821 4.8 249 5.6 99610 85
2002-02-28 08:16:27 51°18.271 2°49.822 12 249 5.6 99610 85
2002-02-28 08:16:32 51°18.271 2°49.821 14.2 256 5.6 99620 85
2002-02-28 08:16:37 51°18.271 2°49.822 3.7 239 5.6 99620 85
2002-02-28 08:16:42 51°18.271 2°49.822 5.7 233 5.5 99610 85
2002-02-28 08:16:47 51°18.271 2°49.823 14.8 251 5.5 99610 85
2002-02-28 08:16:52 51°18.271 2°49.823 5.3 244 5.6 99610 85
2002-02-28 08:16:57 51°18.271 2°49.823 8.8 247 5.6 99610 85
2002-02-28 08:17:02 51°18.271 2°49.823 10.5 252 5.6 99600 85
2002-02-28 08:17:07 51°18.271 2°49.823 10.1 250 5.6 99600 85
2002-02-28 08:17:12 51°18.271 2°49.824 5.2 241 5.6 99610 85
2002-02-28 08:17:17 51°18.271 2°49.824 10.6 250 5.6 99610 85
2002-02-28 08:17:22 51°18.271 2°49.824 9 244 5.5 99610 84
2002-02-28 08:17:27 51°18.271 2°49.824 1.9 253 5.5 99610 84
2002-02-28 08:17:32 51°18.271 2°49.823 6.3 242 5.5 99610 84
2002-02-28 08:17:37 51°18.271 2°49.824 2.5 317 5.5 99610 84
2002-02-28 08:17:42 51°18.271 2°49.824 4.8 319 5.5 99620 84
2002-02-28 08:17:47 51°18.272 2°49.824 4 248 5.5 99620 84
2002-02-28 08:17:52 51°18.271 2°49.823 10 241 5.5 99610 85
2002-02-28 08:17:57 51°18.271 2°49.823 13.6 268 5.5 99610 85
2002-02-28 08:18:02 51°18.271 2°49.823 7.2 248 5.5 99620 85
2002-02-28 08:18:07 51°18.271 2°49.823 2.3 249 5.5 99620 85
2002-02-28 08:18:12 51°18.271 2°49.822 4.1 236 5.5 99620 85
2002-02-28 08:18:17 51°18.271 2°49.822 2.9 211 5.5 99620 85
2002-02-28 08:18:22 51°18.27 2°49.821 2.6 233 5.6 99620 85
2002-02-28 08:18:27 51°18.27 2°49.821 15.9 254 5.6 99620 85
2002-02-28 08:18:32 51°18.27 2°49.821 6.4 251 5.6 99630 85
2002-02-28 08:18:37 51°18.27 2°49.82 2.8 242 5.6 99630 85
2002-02-28 08:18:42 51°18.27 2°49.82 4 231 5.6 99620 86
2002-02-28 08:18:47 51°18.271 2°49.82 13.6 263 5.6 99620 86
2002-02-28 08:18:52 51°18.27 2°49.819 5.6 324 5.6 99620 86
2002-02-28 08:18:57 51°18.271 2°49.818 2.7 240 5.6 99620 86
2002-02-28 08:19:02 51°18.271 2°49.818 5.5 244 5.6 99620 85
2002-02-28 08:19:07 51°18.271 2°49.818 5.4 211 5.6 99620 85
2002-02-28 08:19:12 51°18.272 2°49.817 3.3 220 5.5 99610 84
2002-02-28 08:19:17 51°18.272 2°49.817 5.8 240 5.5 99610 84
2002-02-28 08:19:22 51°18.272 2°49.816 2.9 205 5.5 99610 84
2002-02-28 08:19:27 51°18.272 2°49.816 4.7 235 5.5 99610 84
2002-02-28 08:19:32 51°18.273 2°49.815 3.4 246 5.5 99620 84
2002-02-28 08:19:37 51°18.272 2°49.815 2.8 234 5.5 99620 84
2002-02-28 08:19:42 51°18.272 2°49.815 4.7 244 5.4 99610 84
2002-02-28 08:19:47 51°18.272 2°49.815 5.5 237 5.4 99610 84
2002-02-28 08:19:52 51°18.273 2°49.815 3.2 236 5.4 99610 84
2002-02-28 08:19:57 51°18.273 2°49.815 6.9 232 5.4 99610 84
2002-02-28 08:20:02 51°18.273 2°49.815 1.8 241 5.4 99610 84
2002-02-28 08:20:07 51°18.273 2°49.814 3.3 249 5.4 99610 84
2002-02-28 08:20:12 51°18.273 2°49.814 7.6 233 5.4 99630 84
2002-02-28 08:20:17 51°18.273 2°49.814 3.3 239 5.4 99630 84
2002-02-28 08:20:22 51°18.273 2°49.814 4.8 255 5.4 99630 85
2002-02-28 08:20:27 51°18.273 2°49.814 3.2 212 5.4 99630 85
2002-02-28 08:20:32 51°18.273 2°49.813 4.6 242 5.4 99620 85
2002-02-28 08:20:37 51°18.273 2°49.814 5.3 223 5.4 99620 85
2002-02-28 08:20:42 51°18.273 2°49.814 3.4 207 5.5 99620 85
2002-02-28 08:20:47 51°18.274 2°49.813 6.6 244 5.5 99620 85
2002-02-28 08:20:52 51°18.274 2°49.814 3.5 238 5.4 99600 85
2002-02-28 08:20:57 51°18.274 2°49.813 5.1 252 5.4 99600 85
2002-02-28 08:21:02 51°18.274 2°49.814 2.2 231 5.4 99600 85
2002-02-28 08:21:07 51°18.274 2°49.814 3.7 234 5.4 99600 85
2002-02-28 08:21:12 51°18.274 2°49.814 6.5 226 5.4 99620 85
2002-02-28 08:21:17 51°18.274 2°49.814 5.1 215 5.4 99620 85
2002-02-28 08:21:22 51°18.274 2°49.815 4.1 236 5.4 99620 84
2002-02-28 08:21:27 51°18.274 2°49.815 3 231 5.4 99620 84
2002-02-28 08:21:32 51°18.274 2°49.815 2.5 271 5.3 99620 84
2002-02-28 08:21:37 51°18.274 2°49.815 4.7 218 5.3 99620 84
2002-02-28 08:21:42 51°18.274 2°49.815 3.7 317 5.3 99620 84
2002-02-28 08:21:47 51°18.274 2°49.814 6.6 262 5.3 99620 84
2002-02-28 08:21:52 51°18.274 2°49.814 4.4 232 5.3 99610 85
2002-02-28 08:21:57 51°18.274 2°49.814 3.7 250 5.3 99610 85
2002-02-28 08:22:02 51°18.274 2°49.815 5 210 5.4 99620 85
2002-02-28 08:22:07 51°18.273 2°49.815 3.7 216 5.4 99620 85
2002-02-28 08:22:12 51°18.273 2°49.815 5.2 227 5.4 99620 85
2002-02-28 08:22:17 51°18.273 2°49.815 2.7 239 5.4 99620 85
2002-02-28 08:22:22 51°18.272 2°49.815 4 224 5.4 99630 85
2002-02-28 08:22:27 51°18.272 2°49.815 3.3 233 5.4 99630 85
2002-02-28 08:22:32 51°18.272 2°49.815 4.6 239 5.4 99630 85
2002-02-28 08:22:37 51°18.271 2°49.815 4.3 234 5.4 99630 85
2002-02-28 08:22:42 51°18.271 2°49.815 2.2 194 5.5 99630 86
2002-02-28 08:22:47 51°18.271 2°49.815 2.9 244 5.5 99630 86
2002-02-28 08:22:52 51°18.271 2°49.814 4.9 241 5.4 99620 86
2002-02-28 08:22:57 51°18.271 2°49.814 5.8 128 5.4 99620 86
2002-02-28 08:23:02 51°18.271 2°49.814 5.4 247 5.4 99630 85
2002-02-28 08:23:07 51°18.271 2°49.814 4.6 233 5.4 99630 85
2002-02-28 08:23:12 51°18.271 2°49.814 4.9 245 5.4 99630 85
2002-02-28 08:23:17 51°18.271 2°49.814 3 243 5.4 99630 85
2002-02-28 08:23:22 51°18.271 2°49.814 4.5 243 5.4 99640 85
2002-02-28 08:23:27 51°18.271 2°49.814 1.6 248 5.4 99640 85
2002-02-28 08:23:32 51°18.271 2°49.814 2.5 223 5.4 99620 85
2002-02-28 08:23:37 51°18.271 2°49.814 5.8 254 5.4 99620 85
2002-02-28 08:23:42 51°18.271 2°49.815 3.1 237 5.4 99630 85
2002-02-28 08:23:47 51°18.27 2°49.814 6.2 247 5.4 99630 85
2002-02-28 08:23:52 51°18.27 2°49.814 5.2 245 5.4 99620 85
2002-02-28 08:23:57 51°18.27 2°49.814 3.3 247 5.4 99620 85
2002-02-28 08:24:02 51°18.271 2°49.814 3.3 246 5.4 99610 85
2002-02-28 08:24:07 51°18.271 2°49.814 3.2 232 5.4 99610 85
2002-02-28 08:24:12 51°18.271 2°49.814 3.4 121 5.4 99630 85
2002-02-28 08:24:17 51°18.271 2°49.814 2.2 235 5.4 99630 85
2002-02-28 08:24:22 51°18.271 2°49.814 2.2 234 5.3 99610 85
2002-02-28 08:24:27 51°18.271 2°49.814 2.8 251 5.3 99610 85
2002-02-28 08:24:32 51°18.271 2°49.813 4.5 237 5.3 99630 85
2002-02-28 08:24:37 51°18.271 2°49.813 3.9 205 5.3 99630 85
2002-02-28 08:24:42 51°18.271 2°49.813 3.6 243 5.3 99620 85
2002-02-28 08:24:47 51°18.271 2°49.812 2.2 320 5.3 99620 85
2002-02-28 08:24:52 51°18.271 2°49.812 2.3 286 5.3 99630 85
2002-02-28 08:24:57 51°18.271 2°49.812 2.6 241 5.3 99630 85
2002-02-28 08:25:02 51°18.271 2°49.812 5.8 235 5.4 99640 86
2002-02-28 08:25:07 51°18.271 2°49.812 5.1 243 5.4 99640 86
2002-02-28 08:25:12 51°18.271 2°49.812 3.8 231 5.4 99620 86
2002-02-28 08:25:17 51°18.271 2°49.812 3.1 133 5.4 99620 86
2002-02-28 08:25:22 51°18.271 2°49.811 1.3 232 5.4 99630 86
2002-02-28 08:25:27 51°18.271 2°49.811 5.3 234 5.4 99630 86
2002-02-28 08:25:32 51°18.271 2°49.811 3.2 254 5.4 99630 85
2002-02-28 08:25:37 51°18.272 2°49.811 6.8 238 5.4 99630 85
2002-02-28 08:25:42 51°18.272 2°49.81 3.7 233 5.5 99630 86
2002-02-28 08:25:47 51°18.272 2°49.81 6.9 245 5.5 99630 86
2002-02-28 08:25:52 51°18.272 2°49.81 4.3 222 5.4 99630 86
2002-02-28 08:25:57 51°18.272 2°49.809 4.5 233 5.4 99630 86
2002-02-28 08:26:02 51°18.272 2°49.809 3.9 234 5.4 99620 85
2002-02-28 08:26:07 51°18.272 2°49.809 2.7 241 5.4 99620 85
2002-02-28 08:26:11 51°18.272 2°49.809 6.4 239 5.4 99620 85
2002-02-28 08:26:17 51°18.272 2°49.809 2.4 251 5.4 99620 85
2002-02-28 08:26:22 51°18.272 2°49.809 4.3 214 5.4 99620 85
2002-02-28 08:26:27 51°18.272 2°49.809 2.3 223 5.4 99620 85
2002-02-28 08:26:32 51°18.273 2°49.809 2.6 253 5.4 99620 85
2002-02-28 08:26:37 51°18.272 2°49.808 4.3 214 5.4 99620 85
2002-02-28 08:26:42 51°18.273 2°49.808 3.8 228 5.4 99620 85
2002-02-28 08:26:47 51°18.273 2°49.807 6.9 224 5.4 99620 85
2002-02-28 08:26:52 51°18.273 2°49.807 7.6 325 5.4 99620 85
2002-02-28 08:26:57 51°18.273 2°49.808 2.5 244 5.4 99620 85
2002-02-28 08:27:02 51°18.272 2°49.807 3.2 229 5.4 99620 85
2002-02-28 08:27:07 51°18.272 2°49.807 5.9 237 5.4 99620 85
2002-02-28 08:27:12 51°18.273 2°49.807 3.3 232 5.4 99600 85
2002-02-28 08:27:17 51°18.273 2°49.807 3.8 248 5.4 99600 85
2002-02-28 08:27:22 51°18.273 2°49.807 2.6 239 5.4 99620 85
2002-02-28 08:27:27 51°18.272 2°49.807 2.8 232 5.4 99620 85
2002-02-28 08:27:32 51°18.272 2°49.807 9.9 260 5.3 99630 85
2002-02-28 08:27:37 51°18.272 2°49.806 4.2 231 5.3 99630 85
2002-02-28 08:27:42 51°18.272 2°49.807 2.4 217 5.3 99610 85
2002-02-28 08:27:47 51°18.272 2°49.806 6.6 255 5.3 99610 85
2002-02-28 08:27:51 51°18.272 2°49.806 4.1 226 5.4 99620 85
2002-02-28 08:27:57 51°18.272 2°49.806 6.1 254 5.4 99620 85
2002-02-28 08:28:02 51°18.272 2°49.806 7.6 259 5.4 99630 85
2002-02-28 08:28:07 51°18.272 2°49.806 2.6 269 5.4 99630 85
2002-02-28 08:28:12 51°18.272 2°49.806 4.2 213 5.4 99620 85
2002-02-28 08:28:17 51°18.271 2°49.806 5 225 5.4 99620 85